Weather in Varanasi

India     25˚19′08″N   82˚57′04″E
temp.,
°C
wind,
m/s
gust,
m/s
humid.,
%
clouds,
%
prec.,
mm/h
press.,
hPa
HPBL,
m
28 november, sat
sat2823:30+18˚wsw233940 0.0 102023
02:30+17˚w23430 0.0 101823
05:30+15˚wsw335017 0.0 101827
08:30+19˚wsw35430 0.0 1020230
11:30+26˚wnw34300 0.0 1019811
14:30+28˚nw34220 0.0 10151373
17:30+22˚nw23310 0.0 101623
20:30+20˚w22360 0.0 101723
29 november, sun
sun2923:30+18˚wsw22410 0.0 101823
02:30+16˚wsw22440 0.0 101723
05:30+15˚wsw22480 0.0 101723
08:30+20˚w22400 0.0 1020195
11:30+26˚nw22280 0.0 1018856
14:30+28˚nw34230 0.0 10151538
17:30+22˚nw22310 0.0 101423
20:30+19˚w12340 0.0 101623
30 november, mon
mon3023:30+17˚w22390 0.0 101623
02:30+16˚wsw12430 0.0 101623
05:30+14˚wsw22470 0.0 101623
08:30+19˚wsw22390 0.0 1018168
11:30+26˚wnw22270 0.0 1017817
14:30+27˚nw22220 0.0 10141353
17:30+21˚nw11300 0.0 101423
20:30+19˚nnw11340 0.0 101623
1 december, tue
tue123:30+18˚s12360 0.0 101623
02:30+16˚wsw12410 0.0 101623
05:30+15˚wsw22440 0.0 101623
08:30+20˚wsw12360 0.0 1018158
11:30+26˚w10260 0.0 1017756
14:30+27˚nw11220 0.0 10141460
17:30+22˚ssw11300 0.0 101423
20:30+19˚w11340 0.0 101623
2 december, wed
wed223:30+18˚sw11370 0.0 101623
02:30+17˚wsw22400 0.0 101523
05:30+15˚wsw23430 0.0 101523
08:30+20˚wsw23370 0.0 1017199
11:30+26˚wnw33250 0.0 1016837
14:30+28˚wnw33200 0.0 10121423
17:30+22˚wnw22280 0.0 101223
20:30+19˚wsw22320 0.0 101423